START_TIME,STEP,MOV.,M6,t_acc.,M7,t_acc.,M19,t_acc.,H36,t_acc.
1986-01-26 03:00:28.430 ,3,0,0.,12.0,0.,12.0,0.,12.0,0.,12.0
1986-01-26 03:00:40.430 ,3,0,0.,12.0,0.,12.0,0.,12.0,0.,12.0
1986-01-26 03:00:52.430 ,2,1,0.,12.0,0.,12.0,0.,12.0,0.,12.0
1986-01-26 03:01:04.430 ,2,1,0.,12.0,0.,12.0,0.,12.0,0.,12.0
1986-01-26 03:01:16.430 ,2,0,0.,12.0,0.,12.0,0.,12.0,0.,12.0
1986-01-26 03:01:28.430 ,2,0,0.,12.0,0.,12.0,0.,12.0,0.,12.0
1986-01-26 03:01:40.430 ,1,1,0.,12.0,0.,12.0,0.,12.0,0.,12.0
1986-01-26 03:01:52.430 ,1,1,0.,12.0,0.,12.0,0.,12.0,0.,12.0
1986-01-26 03:02:04.430 ,1,0,0.,12.0,0.,12.0,0.,12.0,0.,12.0
1986-01-26 03:02:16.430 ,1,0,0.,12.0,0.,12.0,0.,12.0,0.,12.0
1986-01-26 03:02:28.430 ,0,1,0.,12.0,0.,12.0,0.,12.0,0.,12.0
1986-01-26 03:02:40.430 ,0,1,0.,12.0,0.,12.0,0.,12.0,0.,12.0
1986-01-26 03:02:52.430 ,0,0,0.,12.0,0.,12.0,0.,12.0,0.,12.0
1986-01-26 03:03:04.430 ,0,0,0.,12.0,0.,12.0,0.,12.0,0.,12.0
1986-01-26 03:03:16.430 ,0,1,0.,12.0,0.,12.0,0.,12.0,0.,12.0
1986-01-26 03:03:28.430 ,0,1,0.,12.0,0.,12.0,0.,12.0,0.,12.0
1986-01-26 03:03:40.430 ,0,0,0.,12.0,0.,12.0,0.,12.0,0.,12.0
1986-01-26 03:03:52.430 ,0,0,0.,12.0,0.,12.0,0.,12.0,0.,12.0
1986-01-26 03:04:04.430 ,1,1,0.,12.0,0.,12.0,0.,12.0,0.,12.0
1986-01-26 03:04:16.430 ,1,1,0.,12.0,0.,12.0,0.,12.0,0.,12.0
1986-01-26 03:04:28.430 ,1,0,0.,12.0,0.,12.0,0.,12.0,0.,12.0
1986-01-26 03:04:40.430 ,1,0,0.,12.0,0.,12.0,0.,12.0,0.,12.0
1986-01-26 03:04:52.430 ,2,1,0.,12.0,0.,12.0,0.,12.0,0.,12.0
1986-01-26 03:05:04.430 ,2,1,0.,12.0,0.,12.0,0.,12.0,0.,12.0
1986-01-26 03:05:16.430 ,2,0,0.,12.0,0.,12.0,0.,12.0,0.,12.0
1986-01-26 03:05:28.430 ,2,0,0.,12.0,0.,12.0,0.,12.0,0.,12.0
1986-01-26 03:05:40.430 ,3,1,0.,12.0,0.,12.0,0.,12.0,0.,12.0
1986-01-26 03:05:52.430 ,3,1,0.,12.0,0.,12.0,0.,12.0,0.,12.0
1986-01-26 03:06:04.430 ,3,0,0.,12.0,0.,12.0,0.,12.0,0.,12.0
1986-01-26 03:06:16.430 ,3,0,0.,12.0,0.,12.0,0.,12.0,0.,12.0
1986-01-26 03:06:28.430 ,4,1,0.,12.0,0.,12.0,0.,12.0,0.,12.0
1986-01-26 03:06:40.430 ,4,1,0.,12.0,0.,12.0,0.,12.0,0.,12.0
1986-01-26 03:06:52.430 ,4,0,0.,12.0,0.,12.0,0.,12.0,0.,12.0
1986-01-26 03:07:04.430 ,4,0,0.,12.0,0.,12.0,0.,12.0,0.,12.0
1986-01-26 03:07:16.430 ,5,1,0.,12.0,0.,12.0,0.,12.0,0.,12.0
1986-01-26 03:07:28.430 ,5,1,0.,12.0,0.,12.0,0.,12.0,0.,12.0
1986-01-26 03:07:40.430 ,5,0,0.,12.0,0.,12.0,0.,12.0,0.,12.0
1986-01-26 03:07:52.430 ,5,0,0.,12.0,0.,12.0,0.,12.0,0.,12.0
1986-01-26 03:08:04.430 ,6,1,0.,12.0,0.,12.0,0.,12.0,0.,12.0
1986-01-26 03:08:16.430 ,6,1,0.,12.0,0.,12.0,0.,12.0,0.,12.0
1986-01-26 03:08:28.430 ,6,0,0.,12.0,0.,12.0,0.,12.0,0.,12.0
1986-01-26 03:08:40.430 ,6,0,0.,12.0,0.,12.0,0.,12.0,0.,12.0
1986-01-26 03:08:52.430 ,7,1,0.,12.0,0.,12.0,0.,12.0,0.,12.0
1986-01-26 03:09:04.430 ,7,1,0.,12.0,0.,12.0,0.,12.0,0.,12.0
1986-01-26 03:09:16.430 ,7,0,0.,12.0,0.,12.0,0.,12.0,0.,12.0
1986-01-26 03:09:28.430 ,7,0,0.,12.0,0.,12.0,0.,12.0,0.,12.0
1986-01-26 03:09:40.430 ,7,1,0.,12.0,0.,12.0,0.,12.0,0.,12.0
1986-01-26 03:09:52.430 ,7,1,0.,12.0,0.,12.0,0.,12.0,0.,12.0
1986-01-26 03:10:04.430 ,7,0,0.,12.0,0.,12.0,0.,12.0,0.,12.0
1986-01-26 03:10:16.430 ,7,0,0.,12.0,0.,12.0,0.,12.0,0.,12.0
1986-01-26 03:10:28.430 ,6,1,0.,12.0,0.,12.0,0.,12.0,0.,12.0
1986-01-26 03:10:40.430 ,6,1,0.,12.0,0.,12.0,0.,12.0,0.,12.0
1986-01-26 03:10:52.430 ,6,0,0.,12.0,0.,12.0,0.,12.0,0.,12.0
1986-01-26 03:11:04.430 ,6,0,0.,12.0,0.,12.0,0.,12.0,0.,12.0
1986-01-26 03:11:16.430 ,5,1,0.,12.0,0.,12.0,0.,12.0,0.,12.0
1986-01-26 03:11:28.430 ,5,1,0.,12.0,0.,12.0,0.,12.0,0.,12.0
1986-01-26 03:11:40.430 ,5,0,0.,12.0,0.,12.0,0.,12.0,0.,12.0
1986-01-26 03:11:52.430 ,5,0,0.,12.0,0.,12.0,0.,12.0,0.,12.0
1986-01-26 03:12:04.430 ,4,1,0.,12.0,0.,12.0,0.,12.0,0.,12.0
1986-01-26 03:12:16.430 ,4,1,0.,12.0,0.,12.0,0.,12.0,0.,12.0
1986-01-26 03:12:28.430 ,4,0,0.,12.0,0.,12.0,0.,12.0,0.,12.0
1986-01-26 03:12:40.430 ,4,0,0.,12.0,0.,12.0,0.,12.0,0.,12.0
1986-01-26 03:12:52.430 ,3,1,0.,12.0,0.,12.0,0.,12.0,0.,12.0
1986-01-26 03:13:04.430 ,3,1,0.,12.0,0.,12.0,0.,12.0,0.,12.0
1986-01-26 03:13:16.430 ,3,0,0.,12.0,0.,12.0,0.,12.0,0.,12.0
1986-01-26 03:13:28.430 ,3,0,0.,12.0,0.,12.0,0.,12.0,0.,12.0
1986-01-26 03:13:40.430 ,2,1,0.,12.0,0.,12.0,0.,12.0,0.,12.0
1986-01-26 03:13:52.430 ,2,1,0.,12.0,0.,12.0,0.,12.0,0.,12.0
1986-01-26 03:14:04.430 ,2,0,0.,12.0,0.,12.0,0.,12.0,0.,12.0
1986-01-26 03:14:16.430 ,2,0,0.,12.0,0.,12.0,0.,12.0,0.,12.0
1986-01-26 03:14:28.430 ,1,1,0.,12.0,0.,12.0,0.,12.0,0.,12.0
1986-01-26 03:14:40.430 ,1,1,0.,12.0,0.,12.0,0.,12.0,0.,12.0
1986-01-26 03:14:52.430 ,1,0,0.,12.0,0.,12.0,0.,12.0,0.,12.0
1986-01-26 03:15:04.430 ,1,0,0.,12.0,0.,12.0,0.,12.0,0.,12.0
1986-01-26 03:15:16.430 ,0,1,0.,12.0,0.,12.0,0.,12.0,0.,12.0
1986-01-26 03:15:28.430 ,0,1,0.,12.0,0.,12.0,0.,12.0,0.,12.0
1986-01-26 03:15:40.430 ,0,0,0.,12.0,0.,12.0,0.,12.0,0.,12.0
1986-01-26 03:15:52.430 ,0,0,0.,12.0,0.,12.0,0.,12.0,0.,12.0
1986-01-26 03:16:04.430 ,0,1,0.,12.0,0.,12.0,0.,12.0,0.,12.0
1986-01-26 03:16:16.430 ,0,1,0.,12.0,0.,12.0,0.,12.0,0.,12.0
1986-01-26 03:16:28.430 ,0,0,0.,12.0,0.,12.0,0.,12.0,0.,12.0
1986-01-26 03:16:40.430 ,0,0,0.,12.0,0.,12.0,0.,12.0,0.,12.0
1986-01-26 03:16:52.430 ,1,1,0.,12.0,0.,12.0,0.,12.0,0.,12.0
1986-01-26 03:17:04.430 ,1,1,0.,12.0,0.,12.0,0.,12.0,0.,12.0
1986-01-26 03:17:16.430 ,1,0,0.,12.0,0.,12.0,0.,12.0,0.,12.0
1986-01-26 03:17:28.430 ,1,0,0.,12.0,0.,12.0,0.,12.0,0.,12.0
1986-01-26 03:17:40.430 ,2,1,0.,12.0,0.,12.0,0.,12.0,0.,12.0
1986-01-26 03:17:52.430 ,2,1,0.,12.0,0.,12.0,0.,12.0,0.,12.0
1986-01-26 03:18:04.430 ,2,0,0.,12.0,0.,12.0,0.,12.0,0.,12.0
1986-01-26 03:18:16.430 ,2,0,0.,12.0,0.,12.0,0.,12.0,0.,12.0
1986-01-26 03:18:28.430 ,3,1,0.,12.0,0.,12.0,0.,12.0,0.,12.0
1986-01-26 03:18:40.430 ,3,1,0.,12.0,0.,12.0,0.,12.0,0.,12.0
1986-01-26 03:18:52.430 ,3,0,0.,12.0,0.,12.0,0.,12.0,0.,12.0
1986-01-26 03:19:04.430 ,3,0,0.,12.0,0.,12.0,0.,12.0,0.,12.0
1986-01-26 03:19:16.430 ,4,1,0.,12.0,0.,12.0,0.,12.0,0.,12.0
1986-01-26 03:19:28.430 ,4,1,0.,12.0,0.,12.0,0.,12.0,0.,12.0
1986-01-26 03:19:40.430 ,4,0,0.,12.0,0.,12.0,0.,12.0,0.,12.0
1986-01-26 03:19:52.430 ,4,0,0.,12.0,0.,12.0,0.,12.0,0.,12.0
1986-01-26 03:20:04.430 ,5,1,0.,12.0,0.,12.0,0.,12.0,0.,12.0
1986-01-26 03:20:16.430 ,5,1,0.,12.0,0.,12.0,0.,12.0,0.,12.0
1986-01-26 03:20:28.430 ,5,0,0.,12.0,0.,12.0,0.,12.0,0.,12.0
1986-01-26 03:20:40.430 ,5,0,0.,12.0,0.,12.0,0.,12.0,0.,12.0
1986-01-26 03:20:52.430 ,6,1,0.,12.0,0.,12.0,0.,12.0,0.,12.0
1986-01-26 03:21:04.430 ,6,1,0.,12.0,0.,12.0,0.,12.0,0.,12.0
1986-01-26 03:21:16.430 ,6,0,0.,12.0,0.,12.0,0.,12.0,0.,12.0
1986-01-26 03:21:28.430 ,6,0,0.,12.0,0.,12.0,0.,12.0,0.,12.0
1986-01-26 03:21:40.430 ,7,1,0.,12.0,0.,12.0,0.,12.0,0.,12.0
1986-01-26 03:21:52.430 ,7,1,0.,12.0,0.,12.0,0.,12.0,0.,12.0
1986-01-26 03:22:04.430 ,7,0,0.,12.0,0.,12.0,0.,12.0,0.,12.0
1986-01-26 03:22:16.430 ,7,0,0.,12.0,0.,12.0,0.,12.0,0.,12.0
1986-01-26 03:22:28.430 ,7,1,0.,12.0,0.,12.0,0.,12.0,0.,12.0
1986-01-26 03:22:40.430 ,7,1,0.,12.0,0.,12.0,0.,12.0,0.,12.0
1986-01-26 03:22:52.430 ,7,0,0.,12.0,0.,12.0,0.,12.0,0.,12.0
1986-01-26 03:23:04.430 ,7,0,0.,12.0,0.,12.0,0.,12.0,0.,12.0
1986-01-26 03:23:16.430 ,6,1,0.,12.0,0.,12.0,0.,12.0,0.,12.0
1986-01-26 03:23:28.430 ,6,1,0.,12.0,0.,12.0,0.,12.0,0.,12.0
1986-01-26 03:23:40.430 ,6,0,0.,12.0,0.,12.0,0.,12.0,0.,12.0
1986-01-26 03:23:52.430 ,6,0,0.,12.0,0.,12.0,0.,12.0,0.,12.0
1986-01-26 03:24:04.430 ,5,1,0.,12.0,0.,12.0,0.,12.0,0.,12.0
1986-01-26 03:24:16.430 ,5,1,0.,12.0,0.,12.0,0.,12.0,0.,12.0
1986-01-26 03:24:28.430 ,5,0,0.,12.0,0.,12.0,0.,12.0,0.,12.0
1986-01-26 03:24:40.430 ,5,0,0.,12.0,0.,12.0,0.,12.0,0.,12.0
1986-01-26 03:24:52.430 ,4,1,0.,12.0,0.,12.0,0.,12.0,0.,12.0
1986-01-26 03:25:04.430 ,4,1,0.,12.0,0.,12.0,0.,12.0,0.,12.0
1986-01-26 03:25:16.430 ,4,0,0.,12.0,0.,12.0,0.,12.0,0.,12.0
1986-01-26 03:25:28.430 ,4,0,0.,12.0,0.,12.0,0.,12.0,0.,12.0
1986-01-26 03:25:40.430 ,3,1,0.,12.0,0.,12.0,0.,12.0,0.,12.0
1986-01-26 03:25:52.430 ,3,1,0.,12.0,0.,12.0,0.,12.0,0.,12.0
1986-01-26 03:26:04.430 ,3,0,0.,12.0,0.,12.0,0.,12.0,0.,12.0
1986-01-26 03:26:16.430 ,3,0,0.,12.0,0.,12.0,0.,12.0,0.,12.0
1986-01-26 03:26:28.430 ,2,1,0.,12.0,0.,12.0,0.,12.0,0.,12.0
1986-01-26 03:26:40.430 ,2,1,0.,12.0,0.,12.0,0.,12.0,0.,12.0
1986-01-26 03:26:52.430 ,2,0,0.,12.0,0.,12.0,0.,12.0,0.,12.0
1986-01-26 03:27:04.430 ,2,0,0.,12.0,0.,12.0,0.,12.0,0.,12.0
1986-01-26 03:27:16.430 ,1,1,0.,12.0,0.,12.0,0.,12.0,0.,12.0
1986-01-26 03:27:28.430 ,1,1,0.,12.0,0.,12.0,0.,12.0,0.,12.0
1986-01-26 03:27:40.430 ,1,0,0.,12.0,0.,12.0,0.,12.0,0.,12.0
1986-01-26 03:27:52.430 ,1,0,0.,12.0,0.,12.0,0.,12.0,0.,12.0
1986-01-26 03:28:04.430 ,0,1,0.,12.0,0.,12.0,0.,12.0,0.,12.0
1986-01-26 03:28:16.430 ,0,1,0.,12.0,0.,12.0,0.,12.0,0.,12.0
1986-01-26 03:28:28.430 ,0,0,0.,12.0,0.,12.0,0.,12.0,0.,12.0
1986-01-26 03:28:40.430 ,0,0,0.,12.0,0.,12.0,0.,12.0,0.,12.0
1986-01-26 03:28:52.430 ,0,1,0.,12.0,0.,12.0,0.,12.0,0.,12.0
1986-01-26 03:29:04.430 ,0,1,0.,12.0,0.,12.0,0.,12.0,0.,12.0
1986-01-26 03:29:16.430 ,0,0,0.,12.0,0.,12.0,0.,12.0,0.,12.0
1986-01-26 03:29:28.430 ,0,0,0.,12.0,0.,12.0,0.,12.0,0.,12.0
1986-01-26 03:29:40.430 ,1,1,0.,12.0,0.,12.0,0.,12.0,0.,12.0
1986-01-26 03:29:52.430 ,1,1,0.,12.0,0.,12.0,0.,12.0,0.,12.0
1986-01-26 03:30:04.430 ,1,0,0.,12.0,0.,12.0,0.,12.0,0.,12.0
1986-01-26 03:30:16.430 ,1,0,0.,12.0,0.,12.0,0.,12.0,0.,12.0
1986-01-26 03:30:28.430 ,2,1,0.,12.0,0.,12.0,0.,12.0,0.,12.0
1986-01-26 03:30:40.430 ,2,1,0.,12.0,0.,12.0,0.,12.0,0.,12.0
1986-01-26 03:30:52.430 ,2,0,0.,12.0,0.,12.0,0.,12.0,0.,12.0
1986-01-26 03:31:04.430 ,2,0,0.,12.0,0.,12.0,0.,12.0,0.,12.0
1986-01-26 03:31:16.430 ,3,1,0.,12.0,0.,12.0,0.,12.0,0.,12.0
1986-01-26 03:31:28.430 ,3,1,0.,12.0,0.,12.0,0.,12.0,0.,12.0
1986-01-26 03:31:40.430 ,3,0,0.,12.0,0.,12.0,0.,12.0,0.,12.0
1986-01-26 03:31:52.430 ,3,0,0.,12.0,0.,12.0,0.,12.0,0.,12.0
1986-01-26 03:32:04.430 ,4,1,0.,12.0,0.,12.0,0.,12.0,0.,12.0
1986-01-26 03:32:16.430 ,4,1,0.,12.0,0.,12.0,0.,12.0,0.,12.0
1986-01-26 03:32:28.430 ,4,0,0.,12.0,0.,12.0,0.,12.0,0.,12.0
1986-01-26 03:32:40.430 ,4,0,0.,12.0,0.,12.0,0.,12.0,0.,12.0
1986-01-26 03:32:52.430 ,5,1,0.,12.0,0.,12.0,0.,12.0,0.,12.0
1986-01-26 03:33:04.430 ,5,1,0.,12.0,0.,12.0,0.,12.0,0.,12.0
1986-01-26 03:33:16.430 ,5,0,0.,12.0,0.,12.0,0.,12.0,0.,12.0
1986-01-26 03:33:28.430 ,5,0,0.,12.0,0.,12.0,0.,12.0,0.,12.0
1986-01-26 03:33:40.430 ,6,1,0.,12.0,0.,12.0,0.,12.0,0.,12.0
1986-01-26 03:33:52.430 ,6,1,0.,12.0,0.,12.0,0.,12.0,0.,12.0
1986-01-26 03:34:04.430 ,6,0,0.,12.0,0.,12.0,0.,12.0,0.,12.0
1986-01-26 03:34:16.430 ,6,0,0.,12.0,0.,12.0,0.,12.0,0.,12.0
1986-01-26 03:34:28.430 ,7,1,0.,12.0,0.,12.0,0.,12.0,0.,12.0
1986-01-26 03:34:40.430 ,7,1,0.,12.0,0.,12.0,0.,12.0,0.,12.0
1986-01-26 03:34:52.430 ,7,0,0.,12.0,0.,12.0,0.,12.0,0.,12.0
1986-01-26 03:35:04.430 ,7,0,0.,12.0,0.,12.0,0.,12.0,0.,12.0
1986-01-26 03:35:16.430 ,7,1,0.,12.0,0.,12.0,0.,12.0,0.,12.0
1986-01-26 03:35:28.430 ,7,1,0.,12.0,0.,12.0,0.,12.0,0.,12.0
1986-01-26 03:35:40.430 ,7,0,0.,12.0,0.,12.0,0.,12.0,0.,12.0
1986-01-26 03:35:52.430 ,7,0,0.,12.0,0.,12.0,0.,12.0,0.,12.0
1986-01-26 03:36:04.430 ,6,1,0.,12.0,0.,12.0,0.,12.0,0.,12.0
1986-01-26 03:36:16.430 ,6,1,0.,12.0,0.,12.0,0.,12.0,0.,12.0
1986-01-26 03:36:28.430 ,6,0,0.,12.0,0.,12.0,0.,12.0,0.,12.0
1986-01-26 03:36:40.430 ,6,0,0.,12.0,0.,12.0,0.,12.0,0.,12.0
1986-01-26 03:36:52.430 ,5,1,0.,12.0,0.,12.0,0.,12.0,0.,12.0
1986-01-26 03:37:04.430 ,5,1,0.,12.0,0.,12.0,0.,12.0,0.,12.0
1986-01-26 03:37:16.430 ,5,0,0.,12.0,0.,12.0,0.,12.0,0.,12.0
1986-01-26 03:37:28.430 ,5,0,0.,12.0,0.,12.0,0.,12.0,0.,12.0
1986-01-26 03:37:40.430 ,4,1,0.,12.0,0.,12.0,0.,12.0,0.,12.0
1986-01-26 03:37:52.430 ,4,1,0.,12.0,0.,12.0,0.,12.0,0.,12.0
1986-01-26 03:38:04.430 ,4,0,0.,12.0,0.,12.0,0.,12.0,0.,12.0
1986-01-26 03:38:16.430 ,4,0,0.,12.0,0.,12.0,0.,12.0,0.,12.0
1986-01-26 03:38:28.430 ,3,1,0.,12.0,0.,12.0,0.,12.0,0.,12.0
1986-01-26 03:38:40.430 ,3,1,0.,12.0,0.,12.0,0.,12.0,0.,12.0
1986-01-26 03:38:52.430 ,3,0,0.,12.0,0.,12.0,0.,12.0,0.,12.0
1986-01-26 03:39:04.430 ,3,0,0.,12.0,0.,12.0,0.,12.0,0.,12.0
1986-01-26 03:39:16.430 ,2,1,0.,12.0,0.,12.0,0.,12.0,0.,12.0
1986-01-26 03:39:28.430 ,2,1,0.,12.0,0.,12.0,0.,12.0,0.,12.0
1986-01-26 03:39:40.430 ,2,0,0.,12.0,0.,12.0,0.,12.0,0.,12.0
1986-01-26 03:39:52.430 ,2,0,0.,12.0,0.,12.0,0.,12.0,0.,12.0
1986-01-26 03:40:04.430 ,1,1,0.,12.0,0.,12.0,0.,12.0,0.,12.0
1986-01-26 03:40:16.430 ,1,1,0.,12.0,0.,12.0,0.,12.0,0.,12.0
1986-01-26 03:40:28.430 ,1,0,0.,12.0,0.,12.0,0.,12.0,0.,12.0
1986-01-26 03:40:40.430 ,1,0,0.,12.0,0.,12.0,0.,12.0,0.,12.0
1986-01-26 03:40:52.430 ,0,1,0.,12.0,0.,12.0,0.,12.0,0.,12.0
1986-01-26 03:41:04.430 ,0,1,0.,12.0,0.,12.0,0.,12.0,0.,12.0
1986-01-26 03:41:16.430 ,0,0,0.,12.0,0.,12.0,0.,12.0,0.,12.0
1986-01-26 03:41:28.430 ,0,0,0.,12.0,0.,12.0,0.,12.0,0.,12.0
1986-01-26 03:41:40.430 ,0,1,0.,12.0,0.,12.0,0.,12.0,0.,12.0
1986-01-26 03:41:52.430 ,0,1,0.,12.0,0.,12.0,0.,12.0,0.,12.0
1986-01-26 03:42:04.430 ,0,0,0.,12.0,0.,12.0,0.,12.0,0.,12.0
1986-01-26 03:42:16.430 ,0,0,0.,12.0,0.,12.0,0.,12.0,0.,12.0
1986-01-26 03:42:28.430 ,1,1,0.,12.0,0.,12.0,0.,12.0,0.,12.0
1986-01-26 03:42:40.430 ,1,1,0.,12.0,0.,12.0,0.,12.0,0.,12.0
1986-01-26 03:42:52.430 ,1,0,0.,12.0,0.,12.0,0.,12.0,0.,12.0
1986-01-26 03:43:04.430 ,1,0,0.,12.0,0.,12.0,0.,12.0,0.,12.0
1986-01-26 03:43:16.430 ,2,1,0.,12.0,0.,12.0,0.,12.0,0.,12.0
1986-01-26 03:43:28.430 ,2,1,0.,12.0,0.,12.0,0.,12.0,0.,12.0
1986-01-26 03:43:40.430 ,2,0,0.,12.0,0.,12.0,0.,12.0,0.,12.0
1986-01-26 03:43:52.430 ,2,0,0.,12.0,0.,12.0,0.,12.0,0.,12.0
1986-01-26 03:44:04.430 ,3,1,0.,12.0,0.,12.0,0.,12.0,0.,12.0
1986-01-26 03:44:16.430 ,3,1,0.,12.0,0.,12.0,0.,12.0,0.,12.0
1986-01-26 03:44:28.430 ,3,0,0.,12.0,0.,12.0,0.,12.0,0.,12.0
1986-01-26 03:44:40.430 ,3,0,0.,12.0,0.,12.0,0.,12.0,0.,12.0
1986-01-26 03:44:52.430 ,4,1,0.,12.0,0.,12.0,0.,12.0,0.,12.0
1986-01-26 03:45:04.430 ,4,1,0.,12.0,0.,12.0,0.,12.0,0.,12.0
1986-01-26 03:45:16.430 ,4,0,0.,12.0,0.,12.0,0.,12.0,0.,12.0
1986-01-26 03:45:28.430 ,4,0,0.,12.0,0.,12.0,0.,12.0,0.,12.0
1986-01-26 03:45:40.430 ,5,1,0.,12.0,0.,12.0,0.,12.0,0.,12.0
1986-01-26 03:45:52.430 ,5,1,0.,12.0,0.,12.0,0.,12.0,0.,12.0
1986-01-26 03:46:04.430 ,5,0,0.,12.0,0.,12.0,0.,12.0,0.,12.0
1986-01-26 03:46:16.430 ,5,0,0.,12.0,0.,12.0,0.,12.0,0.,12.0
1986-01-26 03:46:28.430 ,6,1,0.,12.0,0.,12.0,0.,12.0,0.,12.0
1986-01-26 03:46:40.430 ,6,1,0.,12.0,0.,12.0,0.,12.0,0.,12.0
1986-01-26 03:46:52.430 ,6,0,0.,12.0,0.,12.0,0.,12.0,0.,12.0
1986-01-26 03:47:04.430 ,6,0,0.,12.0,0.,12.0,0.,12.0,0.,12.0
1986-01-26 03:47:16.430 ,7,1,0.,12.0,0.,12.0,0.,12.0,0.,12.0
1986-01-26 03:47:28.430 ,7,1,0.,12.0,0.,12.0,0.,12.0,0.,12.0
1986-01-26 03:47:40.430 ,7,0,0.,12.0,0.,12.0,0.,12.0,0.,12.0
1986-01-26 03:47:52.430 ,7,0,0.,12.0,0.,12.0,0.,12.0,0.,12.0
1986-01-26 03:48:04.430 ,7,1,0.,12.0,0.,12.0,0.,12.0,0.,12.0
1986-01-26 03:48:16.430 ,7,1,0.,12.0,0.,12.0,0.,12.0,0.,12.0
1986-01-26 03:48:28.430 ,7,0,0.,12.0,0.,12.0,0.,12.0,0.,12.0
1986-01-26 03:48:40.430 ,7,0,0.,12.0,0.,12.0,0.,12.0,0.,12.0
1986-01-26 03:48:52.430 ,6,1,0.,12.0,0.,12.0,0.,12.0,0.,12.0
1986-01-26 03:49:04.430 ,6,1,0.,12.0,0.,12.0,0.,12.0,0.,12.0
1986-01-26 03:49:16.430 ,6,0,0.,12.0,0.,12.0,0.,12.0,0.,12.0
1986-01-26 03:49:28.430 ,6,0,0.,12.0,0.,12.0,0.,12.0,0.,12.0
1986-01-26 03:49:40.430 ,5,1,0.,12.0,0.,12.0,0.,12.0,0.,12.0
1986-01-26 03:49:52.430 ,5,1,0.,12.0,0.,12.0,0.,12.0,0.,12.0
1986-01-26 03:50:04.430 ,5,0,0.,12.0,0.,12.0,0.,12.0,0.,12.0
1986-01-26 03:50:16.430 ,5,0,0.,12.0,0.,12.0,0.,12.0,0.,12.0
1986-01-26 03:50:28.430 ,4,1,0.,12.0,0.,12.0,0.,12.0,0.,12.0
1986-01-26 03:50:40.430 ,4,1,0.,12.0,0.,12.0,0.,12.0,0.,12.0
1986-01-26 03:50:52.430 ,4,0,0.,12.0,0.,12.0,0.,12.0,0.,12.0
1986-01-26 03:51:04.430 ,4,0,0.,12.0,0.,12.0,0.,12.0,0.,12.0
1986-01-26 03:51:16.430 ,3,1,0.,12.0,0.,12.0,0.,12.0,0.,12.0
1986-01-26 03:51:28.430 ,3,1,0.,12.0,0.,12.0,0.,12.0,0.,12.0
1986-01-26 03:51:40.430 ,3,0,0.,12.0,0.,12.0,0.,12.0,0.,12.0
1986-01-26 03:51:52.430 ,3,0,0.,12.0,0.,12.0,0.,12.0,0.,12.0
1986-01-26 03:52:04.430 ,2,1,0.,12.0,0.,12.0,0.,12.0,0.,12.0
1986-01-26 03:52:16.430 ,2,1,0.,12.0,0.,12.0,0.,12.0,0.,12.0
1986-01-26 03:52:28.430 ,2,0,0.,12.0,0.,12.0,0.,12.0,0.,12.0
1986-01-26 03:52:40.430 ,2,0,0.,12.0,0.,12.0,0.,12.0,0.,12.0
1986-01-26 03:52:52.430 ,1,1,0.,12.0,0.,12.0,0.,12.0,0.,12.0
1986-01-26 03:53:04.430 ,1,1,0.,12.0,0.,12.0,0.,12.0,0.,12.0
1986-01-26 03:53:16.430 ,1,0,0.,12.0,0.,12.0,0.,12.0,0.,12.0
1986-01-26 03:53:28.430 ,1,0,0.,12.0,0.,12.0,0.,12.0,0.,12.0
1986-01-26 03:53:40.430 ,0,1,0.,12.0,0.,12.0,0.,12.0,0.,12.0
1986-01-26 03:53:52.430 ,0,1,0.,12.0,0.,12.0,0.,12.0,0.,12.0
1986-01-26 03:54:04.430 ,0,0,0.,12.0,0.,12.0,0.,12.0,0.,12.0
1986-01-26 03:54:16.430 ,0,0,0.,12.0,0.,12.0,0.,12.0,0.,12.0
1986-01-26 03:54:28.430 ,0,1,0.,12.0,0.,12.0,0.,12.0,0.,12.0
1986-01-26 03:54:40.430 ,0,1,0.,12.0,0.,12.0,0.,12.0,0.,12.0
1986-01-26 03:54:52.430 ,0,0,0.,12.0,0.,12.0,0.,12.0,0.,12.0
1986-01-26 03:55:04.430 ,0,0,0.,12.0,0.,12.0,0.,12.0,0.,12.0
1986-01-26 03:55:16.430 ,1,1,0.,12.0,0.,12.0,0.,12.0,0.,12.0
1986-01-26 03:55:28.430 ,1,1,0.,12.0,0.,12.0,0.,12.0,0.,12.0
1986-01-26 03:55:40.430 ,1,0,0.,12.0,0.,12.0,0.,12.0,0.,12.0
1986-01-26 03:55:52.430 ,1,0,0.,12.0,0.,12.0,0.,12.0,0.,12.0
1986-01-26 03:56:04.430 ,2,1,0.,12.0,0.,12.0,0.,12.0,0.,12.0
1986-01-26 03:56:16.430 ,2,1,0.,12.0,0.,12.0,0.,12.0,0.,12.0
1986-01-26 03:56:28.430 ,2,0,0.,12.0,0.,12.0,0.,12.0,0.,12.0
1986-01-26 03:56:40.430 ,2,0,0.,12.0,0.,12.0,0.,12.0,0.,12.0
1986-01-26 03:56:52.430 ,3,1,0.,12.0,0.,12.0,0.,12.0,0.,12.0
1986-01-26 03:57:04.430 ,3,1,0.,12.0,0.,12.0,0.,12.0,0.,12.0
1986-01-26 03:57:16.430 ,3,0,0.,12.0,0.,12.0,0.,12.0,0.,12.0
1986-01-26 03:57:28.430 ,3,0,0.,12.0,0.,12.0,0.,12.0,0.,12.0
1986-01-26 03:57:40.430 ,4,1,0.,12.0,0.,12.0,0.,12.0,0.,12.0
1986-01-26 03:57:52.430 ,4,1,0.,12.0,0.,12.0,0.,12.0,0.,12.0
1986-01-26 03:58:04.430 ,4,0,0.,12.0,0.,12.0,0.,12.0,0.,12.0
1986-01-26 03:58:16.430 ,4,0,0.,12.0,0.,12.0,0.,12.0,0.,12.0
1986-01-26 03:58:28.430 ,5,1,0.,12.0,0.,12.0,0.,12.0,0.,12.0
1986-01-26 03:58:40.430 ,5,1,0.,12.0,0.,12.0,0.,12.0,0.,12.0
1986-01-26 03:58:52.430 ,5,0,0.,12.0,0.,12.0,0.,12.0,0.,12.0
1986-01-26 03:59:04.430 ,5,0,0.,12.0,0.,12.0,0.,12.0,0.,12.0
1986-01-26 03:59:16.430 ,6,1,0.,12.0,0.,12.0,0.,12.0,0.,12.0
1986-01-26 03:59:28.430 ,6,1,0.,12.0,0.,12.0,0.,12.0,0.,12.0
1986-01-26 03:59:40.430 ,6,0,0.,12.0,0.,12.0,0.,12.0,0.,12.0
1986-01-26 03:59:52.430 ,6,0,0.,12.0,0.,12.0,0.,12.0,0.,12.0
1986-01-26 04:00:04.430 ,7,1,0.,12.0,0.,12.0,0.,12.0,0.,12.0
1986-01-26 04:00:16.430 ,7,1,0.,12.0,0.,12.0,0.,12.0,0.,12.0
1986-01-26 04:00:28.430 ,7,0,0.,12.0,0.,12.0,0.,12.0,0.,12.0
1986-01-26 04:00:40.430 ,7,0,0.,12.0,0.,12.0,0.,12.0,0.,12.0
1986-01-26 04:00:52.430 ,7,1,0.,12.0,0.,12.0,0.,12.0,0.,12.0
1986-01-26 04:01:04.430 ,7,1,0.,12.0,0.,12.0,0.,12.0,0.,12.0
1986-01-26 04:01:16.430 ,7,0,0.,12.0,0.,12.0,0.,12.0,0.,12.0
1986-01-26 04:01:28.430 ,7,0,0.,12.0,0.,12.0,0.,12.0,0.,12.0
1986-01-26 04:01:40.430 ,6,1,0.,12.0,0.,12.0,0.,12.0,0.,12.0
1986-01-26 04:01:52.430 ,6,1,0.,12.0,0.,12.0,0.,12.0,0.,12.0
1986-01-26 04:02:04.430 ,6,0,0.,12.0,0.,12.0,0.,12.0,0.,12.0
1986-01-26 04:02:16.430 ,6,0,0.,12.0,0.,12.0,0.,12.0,0.,12.0
1986-01-26 04:02:28.430 ,5,1,0.,12.0,0.,12.0,0.,12.0,0.,12.0
1986-01-26 04:02:40.430 ,5,1,0.,12.0,0.,12.0,0.,12.0,0.,12.0
1986-01-26 04:02:52.430 ,5,0,0.,12.0,0.,12.0,0.,12.0,0.,12.0
1986-01-26 04:03:04.430 ,5,0,0.,12.0,0.,12.0,0.,12.0,0.,12.0
1986-01-26 04:03:16.430 ,4,1,0.,12.0,0.,12.0,0.,12.0,0.,12.0
1986-01-26 04:03:28.430 ,4,1,0.,12.0,0.,12.0,0.,12.0,0.,12.0
1986-01-26 04:03:40.430 ,4,0,0.,12.0,0.,12.0,0.,12.0,0.,12.0
1986-01-26 04:03:52.430 ,4,0,0.,12.0,0.,12.0,0.,12.0,0.,12.0
1986-01-26 04:04:04.430 ,3,1,0.,12.0,0.,12.0,0.,12.0,0.,12.0
1986-01-26 04:04:16.430 ,3,1,0.,12.0,0.,12.0,0.,12.0,0.,12.0
1986-01-26 04:04:28.430 ,3,0,0.,12.0,0.,12.0,0.,12.0,0.,12.0
1986-01-26 04:04:40.430 ,3,0,0.,12.0,0.,12.0,0.,12.0,0.,12.0
1986-01-26 04:04:52.430 ,2,1,0.,12.0,0.,12.0,0.,12.0,0.,12.0
1986-01-26 04:05:04.430 ,2,1,0.,12.0,0.,12.0,0.,12.0,0.,12.0
1986-01-26 04:05:16.430 ,2,0,0.,12.0,0.,12.0,0.,12.0,0.,12.0
1986-01-26 04:05:28.430 ,2,0,0.,12.0,0.,12.0,0.,12.0,0.,12.0
1986-01-26 04:05:40.430 ,1,1,0.,12.0,0.,12.0,0.,12.0,0.,12.0
1986-01-26 04:05:52.430 ,1,1,0.,12.0,0.,12.0,0.,12.0,0.,12.0
1986-01-26 04:06:04.430 ,1,0,0.,12.0,0.,12.0,0.,12.0,0.,12.0
1986-01-26 04:06:16.430 ,1,0,0.,12.0,0.,12.0,0.,12.0,0.,12.0
1986-01-26 04:06:28.430 ,0,1,0.,12.0,0.,12.0,0.,12.0,0.,12.0
1986-01-26 04:06:40.430 ,0,1,0.,12.0,0.,12.0,0.,12.0,0.,12.0
1986-01-26 04:06:52.430 ,0,0,0.,12.0,0.,12.0,0.,12.0,0.,12.0
1986-01-26 04:07:04.430 ,0,0,0.,12.0,0.,12.0,0.,12.0,0.,12.0
1986-01-26 04:07:16.430 ,0,1,0.,12.0,0.,12.0,0.,12.0,0.,12.0
1986-01-26 04:07:28.430 ,0,1,0.,12.0,0.,12.0,0.,12.0,0.,12.0
1986-01-26 04:07:40.430 ,0,0,0.,12.0,0.,12.0,0.,12.0,0.,12.0
1986-01-26 04:07:52.430 ,0,0,0.,12.0,0.,12.0,0.,12.0,0.,12.0
1986-01-26 04:08:04.430 ,1,1,0.,12.0,0.,12.0,0.,12.0,0.,12.0
1986-01-26 04:08:16.430 ,1,1,0.,12.0,0.,12.0,0.,12.0,0.,12.0
1986-01-26 04:08:28.430 ,1,0,0.,12.0,0.,12.0,0.,12.0,0.,12.0
1986-01-26 04:08:40.430 ,1,0,0.,12.0,0.,12.0,0.,12.0,0.,12.0
1986-01-26 04:08:52.430 ,2,1,0.,12.0,0.,12.0,0.,12.0,0.,12.0
1986-01-26 04:09:04.430 ,2,1,0.,12.0,0.,12.0,0.,12.0,0.,12.0
1986-01-26 04:09:16.430 ,2,0,0.,12.0,0.,12.0,0.,12.0,0.,12.0
1986-01-26 04:09:28.430 ,2,0,0.,12.0,0.,12.0,0.,12.0,0.,12.0
1986-01-26 04:09:40.430 ,3,1,0.,12.0,0.,12.0,0.,12.0,0.,12.0
1986-01-26 04:09:52.430 ,3,1,0.,12.0,0.,12.0,0.,12.0,0.,12.0
1986-01-26 04:10:04.430 ,3,0,0.,12.0,0.,12.0,0.,12.0,0.,12.0
1986-01-26 04:10:16.430 ,3,0,0.,12.0,0.,12.0,0.,12.0,0.,12.0
1986-01-26 04:10:28.430 ,4,1,0.,12.0,0.,12.0,0.,12.0,0.,12.0
1986-01-26 04:10:40.430 ,4,1,0.,12.0,0.,12.0,0.,12.0,0.,12.0
1986-01-26 04:10:52.430 ,4,0,0.,12.0,0.,12.0,0.,12.0,0.,12.0
1986-01-26 04:11:04.430 ,4,0,0.,12.0,0.,12.0,0.,12.0,0.,12.0
1986-01-26 04:11:16.430 ,5,1,0.,12.0,0.,12.0,0.,12.0,0.,12.0
1986-01-26 04:11:28.430 ,5,1,0.,12.0,0.,12.0,0.,12.0,0.,12.0
1986-01-26 04:11:40.430 ,5,0,0.,12.0,0.,12.0,0.,12.0,0.,12.0
1986-01-26 04:11:52.430 ,5,0,0.,12.0,0.,12.0,0.,12.0,0.,12.0
1986-01-26 04:12:04.430 ,6,1,0.,12.0,0.,12.0,0.,12.0,0.,12.0
1986-01-26 04:12:16.430 ,6,1,0.,12.0,0.,12.0,0.,12.0,0.,12.0
1986-01-26 04:12:28.430 ,6,0,0.,12.0,0.,12.0,0.,12.0,0.,12.0
1986-01-26 04:12:40.430 ,6,0,0.,12.0,0.,12.0,0.,12.0,0.,12.0
1986-01-26 04:12:52.430 ,7,1,0.,12.0,0.,12.0,0.,12.0,0.,12.0
1986-01-26 04:13:04.430 ,7,1,0.,12.0,0.,12.0,0.,12.0,0.,12.0
1986-01-26 04:13:16.430 ,7,0,0.,12.0,0.,12.0,0.,12.0,0.,12.0
1986-01-26 04:13:28.430 ,7,0,0.,12.0,0.,12.0,0.,12.0,0.,12.0
1986-01-26 04:13:40.430 ,7,1,0.,12.0,0.,12.0,0.,12.0,0.,12.0
1986-01-26 04:13:52.430 ,7,1,0.,12.0,0.,12.0,0.,12.0,0.,12.0
1986-01-26 04:14:04.430 ,7,0,0.,12.0,0.,12.0,0.,12.0,0.,12.0
1986-01-26 04:14:16.430 ,7,0,0.,12.0,0.,12.0,0.,12.0,0.,12.0
1986-01-26 04:14:28.430 ,6,1,0.,12.0,0.,12.0,0.,12.0,0.,12.0
1986-01-26 04:14:40.430 ,6,1,0.,12.0,0.,12.0,0.,12.0,0.,12.0
1986-01-26 04:14:52.430 ,6,0,0.,12.0,0.,12.0,0.,12.0,0.,12.0
1986-01-26 04:15:04.430 ,6,0,0.,12.0,0.,12.0,0.,12.0,0.,12.0
1986-01-26 04:15:16.430 ,5,1,0.,12.0,0.,12.0,0.,12.0,0.,12.0
1986-01-26 04:15:28.430 ,5,1,0.,12.0,0.,12.0,0.,12.0,0.,12.0
1986-01-26 04:15:40.430 ,5,0,0.,12.0,0.,12.0,0.,12.0,0.,12.0
1986-01-26 04:15:52.430 ,5,0,0.,12.0,0.,12.0,0.,12.0,0.,12.0
1986-01-26 04:16:04.430 ,4,1,0.,12.0,0.,12.0,0.,12.0,0.,12.0
1986-01-26 04:16:16.430 ,4,1,0.,12.0,0.,12.0,0.,12.0,0.,12.0
1986-01-26 04:16:28.430 ,4,0,0.,12.0,0.,12.0,0.,12.0,0.,12.0
1986-01-26 04:16:40.430 ,4,0,0.,12.0,0.,12.0,0.,12.0,0.,12.0
1986-01-26 04:16:52.430 ,3,1,0.,12.0,0.,12.0,0.,12.0,0.,12.0
1986-01-26 04:17:04.430 ,3,1,0.,12.0,0.,12.0,0.,12.0,0.,12.0
1986-01-26 04:17:16.430 ,3,0,0.,12.0,0.,12.0,0.,12.0,0.,12.0
1986-01-26 04:17:28.430 ,3,0,0.,12.0,0.,12.0,0.,12.0,0.,12.0